SCP
0 0 0 0 0 0 0 0 0 0 0 0 0 0 0 0 0 0 0 0 0 0 0 0 0 0 0 0 0 0 0 0 0 0 0 0 1 1 1 0 0 0 0
0 0 0 0 0 0 0 0 0 0 0 0 0 0 0 0 0 0 0 0 0 0 0 0 0 0 0 0 0 0 0 0 0 0 0 0 1 1 1 1 0 0 0
0 0 0 0 0 0 0 0 0 0 0 0 0 0 0 0 0 0 0 0 0 0 0 0 0 0 0 0 0 0 0 0 0 0 0 0 0 1 1 1 0 0 1
0 0 0 0 0 0 0 0 0 0 0 0 0 0 0 0 0 0 0 0 0 0 0 0 0 0 0 0 0 0 0 0 0 0 0 0 0 1 1 1 0 0 1
1 0 0 0 0 0 0 0 0 0 0 0 0 0 0 0 0 0 0 0 0 0 0 0 0 0 0 0 0 0 0 0 0 0 0 0 0 1 1 0 0 0 0
1 1 0 0 0 0 0 0 0 0 0 0 0 0 0 0 0 0 0 0 0 0 0 0 0 0 0 0 0 0 0 0 0 0 0 0 0 0 1 1 1 0 0
1 0 0 0 0 0 0 0 0 0 0 0 0 0 0 0 0 0 0 0 0 0 0 0 0 0 0 0 0 0 0 0 0 0 0 0 0 0 1 1 1 0 0
1 0 0 0 0 0 0 0 0 0 0 0 0 0 0 0 0 0 0 0 0 0 0 0 0 0 0 0 0 0 0 0 0 0 0 0 0 0 0 1 1 0 0
1 0 0 0 0 0 0 0 0 0 0 0 0 0 0 0 0 0 0 0 0 0 0 0 0 0 0 0 0 0 0 0 0 0 0 0 0 0 0 0 0 0 0
0 0 0 0 0 0 0 0 0 0 0 0 0 0 0 0 0 0 0 0 0 0 0 0 0 0 0 0 0 0 0 0 0 0 0 0 0 0 0 0 0 0 0
0 0 0 0 0 0 0 0 0 0 0 0 0 0 0 0 0 0 0 0 0 0 0 0 0 0 0 0 0 0 0 0 0 0 0 0 0 0 0 0 0 0 0
0 0 0 0 0 0 0 0 0 0 0 0 0 0 0 0 0 0 0 0 0 0 0 0 0 0 0 0 0 0 0 0 0 0 0 0 0 0 0 0 0 0 0
0 0 0 0 0 0 0 0 0 0 0 0 0 0 0 0 0 0 0 0 0 0 0 0 0 0 0 0 0 0 0 0 0 0 0 0 0 0 0 0 0 0 0
0 0 0 0 0 0 0 0 0 0 0 0 0 0 0 0 0 0 0 0 0 0 0 0 0 0 0 0 0 0 0 0 0 0 0 0 0 0 0 0 0 0 0
0 0 0 0 0 0 0 0 0 0 0 0 0 0 0 0 0 0 0 0 0 0 0 0 0 0 0 0 0 0 0 0 0 0 0 0 0 0 0 0 0 0 0
0 0 0 0 0 0 0 0 0 0 0 0 0 0 0 0 0 0 0 0 0 0 0 0 0 0 0 0 0 0 0 0 0 0 0 0 0 0 0 0 0 0 0
0 0 0 0 0 0 0 0 0 0 0 0 0 0 0 0 0 0 0 0 0 0 0 0 0 0 0 0 0 0 0 0 0 0 0 0 0 0 0 0 0 0 0
0 0 0 0 0 0 0 0 0 0 0 0 0 0 0 0 0 0 0 0 0 0 0 0 0 0 0 0 0 0 0 0 0 0 0 0 0 0 0 0 0 0 0
0 0 0 1 1 1 0 0 0 0 0 0 0 0 0 0 0 0 0 0 0 0 0 0 0 0 0 0 0 0 0 0 0 0 0 0 0 0 0 0 0 0 0
0 0 1 1 1 1 0 0 0 0 0 0 0 0 0 0 0 0 0 0 0 0 0 0 0 0 0 0 0 0 0 0 0 0 0 0 0 0 0 0 0 0 0
0 0 1 1 1 1 0 0 0 0 0 0 0 0 0 0 0 0 0 0 0 0 0 0 0 0 0 0 0 0 0 0 0 0 0 0 0 0 0 0 0 0 0
0 0 1 1 1 1 0 0 0 0 0 0 0 0 0 0 0 0 0 0 0 0 0 0 0 0 0 0 0 0 0 0 0 0 0 0 0 0 0 0 0 0 0
0 0 1 1 1 1 0 0 0 0 0 0 0 0 0 0 0 0 0 0 0 0 0 0 0 0 0 0 0 0 0 0 0 0 0 0 0 0 0 0 0 0 0
0 0 0 1 1 0 0 0 0 0 0 0 0 0 0 0 0 0 0 0 0 0 0 0 0 0 0 0 0 0 0 0 0 0 0 0 0 0 0 0 0 0 0
0 0 0 0 0 0 0 0 0 0 0 0 0 0 0 0 0 0 0 0 0 0 0 0 0 0 0 0 0 0 0 0 0 0 0 0 0 0 0 0 0 0 0
0 0 0 0 0 0 0 0 0 0 0 0 0 0 0 0 0 0 0 0 0 0 0 0 0 0 0 0 0 0 0 0 0 0 0 0 0 0 0 0 0 0 0
Wind_Speed
5 4 4 3 2 2 1 1 1 0 1 1 1 1 1 1 1 0 0 1 0 1 1 0 1 0 0 0 0 1 1 2 2 1 1 1 1 1 1 1 2 3 4
5 5 4 3 3 2 1 1 1 0 1 1 1 1 1 1 1 0 1 1 0 1 1 1 1 0 0 0 0 1 1 1 2 1 0 1 0 1 1 2 2 3 2
6 5 4 4 3 2 2 1 1 1 0 1 1 1 1 1 1 1 0 0 1 0 0 0 1 0 0 0 0 0 0 1 1 1 0 0 0 0 1 0 0 0 1
6 6 5 5 4 3 3 2 1 1 0 0 1 1 1 1 1 1 1 1 1 1 1 0 0 0 1 1 0 0 1 1 1 1 0 0 1 0 1 1 0 0 0
7 6 6 5 4 3 2 2 1 1 1 0 1 1 1 1 1 1 1 1 1 2 2 1 1 1 0 1 1 1 2 1 1 1 1 1 0 0 0 1 1 0 1
8 7 6 5 4 4 3 2 1 1 0 1 1 1 2 1 2 2 2 1 1 1 2 2 2 2 3 2 2 2 3 3 2 2 1 1 1 1 1 1 1 1 1
8 7 6 6 5 4 4 3 2 1 1 1 1 1 1 2 3 3 4 2 2 1 1 2 2 2 3 2 3 4 3 2 3 3 2 2 1 2 2 1 2 2 2
8 7 6 6 6 4 4 3 2 2 2 1 1 1 1 2 3 3 4 3 2 2 1 1 1 2 2 2 2 2 2 2 1 1 2 2 2 1 2 2 2 1 0
8 8 7 7 6 5 5 4 3 2 2 2 1 1 1 2 3 2 3 2 2 2 2 2 2 2 4 4 3 3 3 2 3 3 2 2 2 2 2 2 2 1 0
9 8 7 7 7 7 6 4 3 3 3 3 2 1 1 1 3 2 3 2 2 1 2 3 4 4 4 5 3 3 2 2 2 3 4 5 4 4 4 2 2 2 1
7 7 7 7 7 7 5 4 4 4 3 3 2 1 0 1 3 3 2 2 2 1 1 1 2 5 6 5 4 2 2 2 2 3 3 3 4 4 3 2 2 2 2
6 7 7 7 6 5 5 4 4 5 4 3 2 1 1 1 2 2 3 4 4 3 1 0 2 6 7 6 4 5 6 5 3 3 3 3 3 3 2 2 2 2 1
6 6 6 6 5 5 6 6 4 4 4 3 3 2 1 1 1 3 3 4 5 3 2 4 5 6 6 5 7 8 6 3 3 3 3 2 1 2 2 2 3 3 3
7 6 6 6 5 5 4 5 5 5 5 4 4 3 2 1 0 1 1 2 3 3 3 4 7 7 5 5 6 5 4 3 3 2 1 1 2 2 3 2 2 2 2
6 6 6 6 6 5 4 4 5 5 6 7 5 5 5 3 3 4 3 2 2 3 3 3 3 3 3 3 3 3 3 3 3 2 2 2 2 3 2 2 2 2 2
6 6 5 5 5 5 5 3 1 2 5 8 8 7 4 5 6 6 5 5 6 7 5 3 2 2 2 2 2 2 3 3 2 2 2 2 2 2 2 2 2 2 2
7 7 5 5 6 6 6 6 4 2 3 4 6 8 7 7 8 7 7 7 7 8 4 3 2 2 2 2 2 2 1 1 1 2 2 2 2 2 2 2 2 2 1
6 8 7 6 6 7 7 7 7 7 5 2 2 5 8 8 8 8 9 7 4 3 3 3 3 2 2 2 2 2 2 2 2 2 2 2 2 2 2 1 1 1 1
6 5 5 5 6 6 6 6 6 7 6 4 3 3 5 6 6 7 7 4 4 3 3 3 2 2 2 2 2 2 2 2 2 2 2 2 2 2 2 1 1 2 1
6 8 7 6 5 6 6 7 7 7 6 6 6 6 5 4 3 4 3 3 4 4 4 3 3 3 3 3 3 3 3 3 3 2 2 2 2 2 2 2 2 1 1
5 7 9 6 6 6 7 7 8 8 8 7 7 7 11 7 6 6 5 5 5 5 5 4 4 4 3 3 3 3 4 2 2 2 2 1 2 2 2 2 2 2 2
4 5 6 6 6 6 6 7 7 8 8 8 6 6 12 6 6 6 5 5 4 4 4 5 4 3 3 4 4 4 3 2 2 1 1 1 1 1 1 1 2 2 2
5 5 5 5 5 7 7 6 7 8 8 8 8 7 7 6 6 6 6 5 5 5 4 5 5 4 3 3 3 4 4 3 2 2 1 1 0 1 1 1 1 2 2
4 5 6 5 5 5 6 6 6 7 7 8 8 7 7 7 7 7 6 5 5 5 5 5 5 7 7 4 3 3 3 2 2 2 2 1 0 0 1 1 2 2 2
4 4 5 5 6 6 6 6 6 7 7 7 7 7 7 7 7 7 6 6 7 6 6 6 5 6 7 7 5 4 4 4 3 2 1 1 0 1 1 2 2 2 3
4 4 4 5 5 5 6 6 6 7 7 7 7 7 7 7 7 7 7 7 6 6 6 5 6 7 7 5 6 6 6 4 3 2 1 1 1 1 1 2 2 3 3
Wind_Direction
175 172 164 176 179 162 164 204 213 264 314 333 332 333 332 320 318 11 311 346 352 330 335 11 298 260 142 136 157 155 170 160 179 252 284 319 135 130 153 187 198 191 200
174 167 167 168 161 157 176 206 196 232 291 308 344 7 1 351 344 6 313 342 4 332 329 30 326 352 58 49 166 204 196 177 166 188 316 349 166 186 166 184 195 189 195
167 162 161 164 166 176 187 200 196 198 307 343 21 29 1 4 21 358 3 25 31 348 311 325 295 70 16 334 183 182 239 162 142 152 215 332 3 90 94 86 137 149 202
166 165 170 180 182 187 186 183 187 184 182 339 20 360 342 26 34 31 52 49 27 6 15 58 356 166 209 218 169 175 148 110 114 123 117 8 11 27 106 108 33 11 291
169 175 185 186 179 174 174 180 188 190 174 126 50 8 359 26 24 38 45 59 39 19 15 8 340 340 269 189 171 160 136 122 112 108 101 58 10 39 157 148 155 8 330
175 185 183 172 170 175 182 178 173 177 139 80 63 54 25 10 22 57 92 80 62 48 6 346 335 350 359 29 73 123 146 147 149 145 156 170 224 217 192 163 146 131 261
178 180 175 173 176 184 182 167 176 180 143 100 89 76 32 346 19 58 83 94 81 57 21 7 16 20 31 39 45 58 59 82 143 161 169 199 206 212 174 167 169 176 206
177 178 177 174 177 178 172 178 189 170 153 151 135 116 52 1 30 78 97 85 71 50 31 26 47 14 28 72 76 62 50 34 35 137 174 205 209 216 189 180 182 169 239
180 183 181 174 172 173 178 186 180 155 149 150 145 129 80 353 18 65 101 88 71 36 24 36 54 44 35 74 87 77 52 16 29 50 65 73 75 74 114 103 102 113 121
189 187 180 173 173 178 185 182 166 155 159 148 133 135 113 3 10 52 109 112 96 51 22 17 36 52 54 76 85 87 71 14 26 37 36 35 39 40 55 91 134 134 143
184 175 174 175 178 181 179 169 158 152 141 137 136 126 75 10 3 30 101 129 140 112 68 22 22 49 58 69 78 81 86 88 72 67 54 39 36 36 34 45 70 121 139
165 168 175 178 179 173 163 163 157 151 145 150 147 147 332 336 0 24 81 121 127 116 107 59 56 64 59 58 65 60 67 75 74 72 61 43 32 23 17 29 41 60 80
162 172 177 174 175 167 165 165 158 156 158 168 166 176 222 305 344 34 81 107 114 111 101 93 79 65 54 52 57 61 61 64 73 74 65 37 12 5 21 28 28 41 46
170 178 177 173 172 168 167 168 167 172 173 177 179 183 186 192 275 339 56 97 96 95 84 77 71 63 60 54 52 49 49 64 81 77 66 27 26 38 35 30 33 29 40
176 178 180 179 174 171 170 177 180 193 187 182 190 184 175 190 214 181 160 147 142 134 109 71 58 55 58 49 43 41 40 46 54 46 51 47 40 43 32 27 42 51 59
182 185 184 181 177 172 165 152 113 169 181 186 182 174 183 185 170 158 150 145 139 130 110 98 91 85 86 80 73 55 45 45 42 54 56 54 48 44 35 29 39 52 44
193 192 186 184 182 178 175 170 164 98 88 145 169 172 167 162 157 148 138 131 130 125 112 122 125 123 112 101 94 90 71 42 54 65 62 50 53 53 51 38 30 28 13
199 196 190 189 188 186 186 184 177 171 170 179 190 179 169 163 157 149 138 118 103 106 129 141 145 141 130 118 109 99 83 63 59 61 59 53 53 62 57 40 25 15 353
201 198 194 190 189 188 185 181 181 181 176 167 159 173 173 156 148 150 140 135 149 151 149 144 145 142 134 124 115 103 94 81 68 63 56 51 46 58 53 32 23 13 11
210 206 194 187 186 184 182 182 182 182 180 179 182 180 164 147 152 159 158 155 155 157 155 150 144 137 132 125 118 108 96 85 76 69 60 51 45 52 52 36 23 15 360
214 206 197 191 189 188 187 188 185 182 184 188 193 187 173 169 173 171 170 169 167 165 159 151 144 139 133 127 123 114 107 98 91 85 72 53 45 40 27 26 16 8 353
208 202 199 196 193 191 191 190 185 183 184 183 181 180 178 169 170 170 171 173 170 165 158 150 145 144 146 145 140 131 123 119 110 99 85 60 46 35 26 17 7 354 345
205 201 199 198 194 190 186 185 183 181 180 179 175 171 174 177 174 171 170 167 160 154 149 145 141 137 131 131 136 142 146 155 163 156 137 101 41 15 7 354 338 328 325
205 201 196 195 192 189 184 181 180 177 175 174 175 175 174 174 170 168 163 157 151 148 146 145 147 149 145 140 136 138 149 159 156 153 154 161 197 317 321 311 306 308 310
205 202 196 192 189 188 183 178 178 176 172 172 172 171 169 167 164 162 158 154 151 151 151 148 147 151 153 152 151 155 158 154 148 149 153 159 203 276 293 298 300 306 306
206 202 199 193 187 183 181 179 179 178 175 170 166 165 165 164 164 160 157 154 153 153 152 153 156 157 157 156 158 159 159 157 157 156 149 161 195 263 287 293 300 302 303